AAL7849 LSZB-LSGS

Flight info

Callsign AAL7849
Flight time 0h 28m
Altitude 17000
Route AMRID Z144 ESEVA/N0390F180 Z669 VADAR
Aircraft A319/M-SDE3FGHIRWY/LB1

Departure

Time 2026-04-24 07:55
Airport Bern Airport (LSZB)

Arrival

Time 2026-04-24 08:24
Airport Sion Airport (LSGS)
Time Latitude Longitude Altitude Speed Heading
2026-04-24 07:46 46.91186 7.50189 1681 ft 0 kts 73°
2026-04-24 07:51 46.91190 7.50205 1686 ft 0 kts 76°
2026-04-24 07:51 46.91195 7.50208 1684 ft 1 kts 355°
2026-04-24 07:52 46.91198 7.50154 1683 ft 16 kts 288°
2026-04-24 07:52 46.91330 7.49961 1681 ft 32 kts 316°
2026-04-24 07:52 46.91509 7.49749 1680 ft 23 kts 320°
2026-04-24 07:52 46.91523 7.49731 1680 ft 0 kts 317°
2026-04-24 07:53 46.91524 7.49727 1679 ft 3 kts 295°
2026-04-24 07:53 46.91502 7.49626 1679 ft 11 kts 293°
2026-04-24 07:53 46.91594 7.49492 1680 ft 29 kts 317°
2026-04-24 07:53 46.91788 7.49262 1684 ft 38 kts 320°
2026-04-24 07:54 46.91918 7.49091 1678 ft 10 kts 307°
2026-04-24 07:54 46.91953 7.49063 1679 ft 0 kts 45°
2026-04-24 07:54 46.91951 7.49070 1681 ft 2 kts 122°
2026-04-24 07:54 46.91836 7.49202 1682 ft 64 kts 139°
2026-04-24 07:55 46.91248 7.49921 1697 ft 150 kts 140°
2026-04-24 07:55 46.90359 7.51007 2217 ft 180 kts 139°
2026-04-24 07:55 46.89415 7.52314 3326 ft 189 kts 130°
2026-04-24 07:55 46.88619 7.53812 4330 ft 185 kts 121°
2026-04-24 07:56 46.88234 7.55579 5006 ft 186 kts 90°
2026-04-24 07:56 46.88465 7.57452 5592 ft 191 kts 68°
2026-04-24 07:56 46.88718 7.59461 6128 ft 215 kts 97°
2026-04-24 07:56 46.88105 7.61549 6849 ft 240 kts 129°
2026-04-24 07:57 46.86687 7.63038 7617 ft 266 kts 158°
2026-04-24 07:57 46.84801 7.63396 8447 ft 284 kts 187°
2026-04-24 07:57 46.82941 7.62388 9620 ft 290 kts 214°
2026-04-24 07:57 46.81554 7.60283 10654 ft 299 kts 239°
2026-04-24 07:58 46.80822 7.57347 11230 ft 322 kts 264°
2026-04-24 07:58 46.80956 7.53992 11737 ft 343 kts 284°
2026-04-24 07:58 46.81439 7.50522 12615 ft 352 kts 278°
2026-04-24 07:58 46.81535 7.46932 13674 ft 357 kts 267°
2026-04-24 07:59 46.81198 7.43308 14595 ft 363 kts 258°
2026-04-24 07:59 46.80570 7.39699 15449 ft 370 kts 253°
2026-04-24 07:59 46.79789 7.36078 16274 ft 378 kts 251°
2026-04-24 07:59 46.78944 7.32418 17092 ft 384 kts 251°
2026-04-24 08:00 46.78075 7.28697 17877 ft 392 kts 250°
2026-04-24 08:00 46.77194 7.24905 18183 ft 396 kts 251°
2026-04-24 08:00 46.76315 7.21096 18234 ft 396 kts 251°
2026-04-24 08:00 46.75424 7.17228 18235 ft 415 kts 251°
2026-04-24 08:01 46.74486 7.13159 18237 ft 440 kts 251°
2026-04-24 08:01 46.73491 7.08824 18232 ft 463 kts 251°
2026-04-24 08:01 46.72476 7.04317 18237 ft 463 kts 251°
2026-04-24 08:01 46.71292 7.00018 18235 ft 457 kts 240°
2026-04-24 08:02 46.69517 6.96169 18231 ft 456 kts 228°
2026-04-24 08:02 46.67249 6.92996 18231 ft 453 kts 216°
2026-04-24 08:02 46.64573 6.90585 18227 ft 449 kts 203°
2026-04-24 08:02 46.61655 6.89058 18223 ft 445 kts 191°
2026-04-24 08:03 46.58602 6.88444 18226 ft 442 kts 179°
2026-04-24 08:03 46.55549 6.88600 18197 ft 438 kts 170°
2026-04-24 08:03 46.52659 6.89634 17974 ft 417 kts 156°
2026-04-24 08:03 46.50186 6.91566 17722 ft 390 kts 141°
2026-04-24 08:04 46.48306 6.94233 17227 ft 370 kts 125°
2026-04-24 08:04 46.47202 6.97466 16985 ft 345 kts 104°
2026-04-24 08:04 46.47018 7.00786 16980 ft 320 kts 83°
2026-04-24 08:04 46.47456 7.03866 16746 ft 304 kts 83°
2026-04-24 08:05 46.47289 7.06957 16612 ft 328 kts 107°
2026-04-24 08:05 46.46264 7.10005 16854 ft 346 kts 121°
2026-04-24 08:05 46.44895 7.12978 16975 ft 359 kts 123°
2026-04-24 08:05 46.43487 7.15997 16998 ft 359 kts 122°
2026-04-24 08:06 46.42148 7.19029 16997 ft 357 kts 121°
2026-04-24 08:06 46.40854 7.22117 17007 ft 359 kts 120°
2026-04-24 08:06 46.39597 7.25229 17001 ft 357 kts 117°
2026-04-24 08:06 46.38807 7.28618 17000 ft 356 kts 97°
2026-04-24 08:07 46.38776 7.32210 16978 ft 357 kts 84°
2026-04-24 08:07 46.39099 7.35769 16999 ft 356 kts 82°
2026-04-24 08:07 46.39481 7.39315 16981 ft 357 kts 81°
2026-04-24 08:07 46.39873 7.42854 16990 ft 357 kts 81°
2026-04-24 08:08 46.40261 7.46410 16979 ft 355 kts 81°
2026-04-24 08:08 46.40635 7.49915 16983 ft 357 kts 81°
2026-04-24 08:08 46.41008 7.53466 16981 ft 356 kts 81°
2026-04-24 08:09 46.41749 7.60569 16998 ft 356 kts 82°
2026-04-24 08:09 46.42116 7.64114 16983 ft 355 kts 82°
2026-04-24 08:09 46.42483 7.67673 16993 ft 356 kts 82°
2026-04-24 08:09 46.42847 7.71221 16992 ft 358 kts 82°
2026-04-24 08:10 46.43211 7.74779 16988 ft 355 kts 82°
2026-04-24 08:10 46.43574 7.78332 16990 ft 356 kts 82°
2026-04-24 08:10 46.43940 7.81889 16988 ft 356 kts 82°
2026-04-24 08:10 46.44180 7.84237 16996 ft 356 kts 82°
2026-04-24 08:11 46.44539 7.87796 16999 ft 356 kts 82°
2026-04-24 08:11 46.44896 7.91346 16988 ft 355 kts 82°
2026-04-24 08:11 46.45253 7.94896 16985 ft 356 kts 81°
2026-04-24 08:11 46.45484 7.99619 16998 ft 355 kts 97°
2026-04-24 08:12 46.44770 8.03046 16992 ft 359 kts 116°
2026-04-24 08:12 46.43272 8.05950 16986 ft 361 kts 136°
2026-04-24 08:12 46.41935 8.07385 16958 ft 362 kts 148°
2026-04-24 08:12 46.39546 8.08694 16477 ft 367 kts 168°
2026-04-24 08:13 46.37015 8.08835 15529 ft 376 kts 186°
2026-04-24 08:13 46.34482 8.07778 14379 ft 383 kts 206°
2026-04-24 08:13 46.32344 8.05557 13646 ft 374 kts 227°
2026-04-24 08:13 46.30931 8.02540 13209 ft 355 kts 248°
2026-04-24 08:14 46.30324 7.99127 12376 ft 352 kts 266°
2026-04-24 08:14 46.30315 7.95634 11831 ft 341 kts 275°
2026-04-24 08:14 46.30581 7.92228 11578 ft 342 kts 277°
2026-04-24 08:14 46.30737 7.88802 11234 ft 340 kts 272°
2026-04-24 08:15 46.30754 7.85453 11097 ft 325 kts 270°
2026-04-24 08:15 46.30727 7.82514 10621 ft 0 kts 270°
2026-04-24 08:15 46.30718 7.79922 7927 ft 282 kts 270°
2026-04-24 08:15 46.30687 7.77239 7490 ft 256 kts 269°
2026-04-24 08:16 46.30655 7.74647 6866 ft 258 kts 269°
2026-04-24 08:16 46.30627 7.72080 6607 ft 255 kts 269°
2026-04-24 08:16 46.30605 7.69551 6534 ft 238 kts 269°
2026-04-24 08:16 46.30587 7.67364 6563 ft 197 kts 269°
2026-04-24 08:17 46.30572 7.65564 6528 ft 163 kts 269°
2026-04-24 08:17 46.30559 7.64019 6544 ft 145 kts 269°
2026-04-24 08:17 46.30548 7.62629 6546 ft 138 kts 269°
2026-04-24 08:17 46.30506 7.61233 6524 ft 138 kts 263°
2026-04-24 08:18 46.30351 7.59887 6302 ft 135 kts 256°
2026-04-24 08:18 46.30077 7.58589 5908 ft 136 kts 249°
2026-04-24 08:18 46.29704 7.57337 5758 ft 134 kts 243°
2026-04-24 08:18 46.29306 7.56133 5714 ft 132 kts 244°
2026-04-24 08:19 46.28919 7.54926 5421 ft 133 kts 244°
2026-04-24 08:19 46.28526 7.53701 5069 ft 134 kts 244°
2026-04-24 08:19 46.28135 7.52483 4686 ft 133 kts 245°
2026-04-24 08:19 46.27748 7.51281 4289 ft 131 kts 243°
2026-04-24 08:20 46.27326 7.50208 4112 ft 112 kts 238°
2026-04-24 08:20 46.26887 7.49224 4216 ft 131 kts 236°
2026-04-24 08:20 46.26340 7.47939 4204 ft 151 kts 242°
2026-04-24 08:20 46.25910 7.46686 4020 ft 129 kts 242°
2026-04-24 08:21 46.25506 7.45587 3777 ft 119 kts 242°
2026-04-24 08:21 46.25108 7.44519 3595 ft 138 kts 240°
2026-04-24 08:21 46.24621 7.43248 3378 ft 141 kts 242°
2026-04-24 08:21 46.24164 7.41999 3240 ft 134 kts 241°
2026-04-24 08:22 46.23747 7.40850 2924 ft 127 kts 245°
2026-04-24 08:22 46.23410 7.39638 2643 ft 130 kts 249°
2026-04-24 08:22 46.23117 7.38408 2393 ft 129 kts 251°
2026-04-24 08:22 46.22879 7.37136 2181 ft 133 kts 253°
2026-04-24 08:23 46.22605 7.35868 1958 ft 131 kts 252°
2026-04-24 08:23 46.22341 7.34608 1721 ft 131 kts 253°
2026-04-24 08:23 46.22085 7.33378 1592 ft 122 kts 252°
2026-04-24 08:23 46.21903 7.32544 1587 ft 51 kts 252°
2026-04-24 08:24 46.21797 7.32106 1587 ft 16 kts 218°
2026-04-24 08:24 46.21767 7.32103 1587 ft 10 kts 160°
2026-04-24 08:24 46.21743 7.32186 1587 ft 14 kts 77°
2026-04-24 08:24 46.21826 7.32587 1587 ft 75 kts 72°
2026-04-24 08:25 46.21898 7.32927 1588 ft 4 kts 71°
2026-04-24 08:25 46.21918 7.33017 1588 ft 2 kts 73°
2026-04-24 08:25 46.21920 7.33027 1588 ft 3 kts 73°
2026-04-24 08:25 46.21996 7.33389 1590 ft 59 kts 73°
2026-04-24 08:26 46.22060 7.33863 1594 ft 8 kts 67°